Columbia Airport, CA

11:20 PM PDT on October 22, 2019 (GMT -0700)
Columbia Airport

Weather History for KO22 - July, 2019

Change the Weather History Date:

Tuesday, July 9, 2019

  Actual Average (WUND) Record (WUND)
Temperature  
Mean Temperature 74 °F -  
Max Temperature 86 °F - - (-1)
Min Temperature 62 °F - - (-1)
Cooling Degree Days 9    
Growing Degree Days 24 (Base 50)    
Moisture  
Dew Point 43 °F    
Average Humidity 31    
Maximum Humidity 63    
Minimum Humidity 15    
Precipitation  
Precipitation 0.00 in - - ()
Sea Level Pressure  
Sea Level Pressure 30.06 in    
Wind  
Wind Speed 3 mph (SSW)    
Max Wind Speed 8 mph    
Max Gust Speed 12 mph    
Visibility 10 miles    
Events      
Averages and records for this station are not official NWS values.
T = Trace of Precipitation, MM = Missing Value Source: NWS Daily Summary

Daily Weather History Graph

Daily Weather History Graph

Search for Another Location

Airport or City:

Astronomy

Jul. 09, 2019 Rise Set
Actual Time 5:46 AM PDT 8:26 PM PDT
Civil Twilight 5:15 AM PDT 8:57 PM PDT
Nautical Twilight 4:37 AM PDT 9:36 PM PDT
Astronomical Twilight 3:53 AM PDT 10:19 PM PDT
Moon 1:35 PM PDT (7/9) 12:53 AM PDT (7/9)
Length of Visible Light 15h 41m
Length of Day
14h 39m
First Quarter, 54% of the Moon is Illuminated
Jul 9
First Quarter
Jul 16
Full
Jul 24
Last Quarter
Jul 31
New
Aug 7
First Quarter

Hourly Weather History & Observations

Time (PDT) Temp. Dew Point Humidity Pressure Visibility Wind Dir Wind Speed Gust Speed Precip Events Conditions
8:15 AM 68.0 °F 44.6 °F 43% 30.03 in 10.0 mi Calm Calm - N/A   Clear
8:35 AM 69.8 °F 44.6 °F 40% 30.03 in 9.0 mi Calm Calm - N/A   Clear
8:55 AM 73.4 °F 44.6 °F 36% 30.04 in 10.0 mi Calm Calm - N/A   Clear
9:15 AM 75.2 °F 44.6 °F 34% 30.04 in 10.0 mi Calm Calm - N/A   Clear
9:35 AM 77.0 °F 42.8 °F 29% 30.04 in 10.0 mi Calm Calm - N/A   Clear
9:55 AM 77.0 °F 41.0 °F 28% 30.04 in 10.0 mi South 3.5 mph - N/A   Clear
10:15 AM 78.8 °F 42.8 °F 28% 30.04 in 10.0 mi South 3.5 mph - N/A   Clear
10:35 AM 78.8 °F 37.4 °F 23% 30.04 in 10.0 mi South 5.8 mph - N/A   Clear
10:55 AM 80.6 °F 39.2 °F 23% 30.05 in 10.0 mi South 4.6 mph - N/A   Clear
11:15 AM 80.6 °F 42.8 °F 26% 30.05 in 10.0 mi South 4.6 mph - N/A   Clear
11:35 AM 82.4 °F 46.4 °F 28% 30.06 in 10.0 mi South 4.6 mph - N/A   Clear
11:55 AM 82.4 °F 46.4 °F 28% 30.06 in 10.0 mi South 5.8 mph - N/A   Clear
12:15 PM 82.4 °F 42.8 °F 25% 30.06 in 10.0 mi South 5.8 mph - N/A   Clear
12:35 PM 82.4 °F 41.0 °F 23% 30.06 in 10.0 mi Variable 5.8 mph - N/A   Clear
12:55 PM 84.2 °F 39.2 °F 20% 30.06 in 10.0 mi SSW 8.1 mph - N/A   Clear
1:15 PM 86.0 °F 37.4 °F 18% 30.06 in 10.0 mi South 4.6 mph 11.5 mph N/A   Clear
1:35 PM 84.2 °F 39.2 °F 20% 30.07 in 10.0 mi South 8.1 mph - N/A   Clear
1:55 PM 86.0 °F 35.6 °F 17% 30.06 in 10.0 mi Variable 5.8 mph - N/A   Clear
2:15 PM 84.2 °F 39.2 °F 20% 30.06 in 10.0 mi Variable 3.5 mph - N/A   Clear
2:35 PM 86.0 °F 37.4 °F 18% 30.06 in 10.0 mi SSE 8.1 mph - N/A   Clear
2:55 PM 86.0 °F 39.2 °F 19% 30.06 in 10.0 mi WSW 8.1 mph - N/A   Clear
3:15 PM 86.0 °F 39.2 °F 19% 30.06 in 10.0 mi SW 5.8 mph - N/A   Clear
3:35 PM 86.0 °F 39.2 °F 19% 30.06 in 10.0 mi WSW 8.1 mph - N/A   Clear
4:35 PM 86.0 °F 35.6 °F 17% 30.05 in 10.0 mi WSW 5.8 mph - N/A   Clear
4:55 PM 86.0 °F 35.6 °F 17% 30.05 in 10.0 mi SW 4.6 mph - N/A   Clear
5:15 PM 86.0 °F 33.8 °F 15% 30.04 in 10.0 mi Variable 4.6 mph - N/A   Clear
5:35 PM 86.0 °F 35.6 °F 17% 30.04 in 10.0 mi Calm Calm - N/A   Clear
5:55 PM 84.2 °F 39.2 °F 20% 30.04 in 10.0 mi WSW 5.8 mph - N/A   Clear
6:15 PM 84.2 °F 41.0 °F 22% 30.04 in 10.0 mi SW 4.6 mph - N/A   Clear
6:35 PM 84.2 °F 41.0 °F 22% 30.04 in 10.0 mi Variable 3.5 mph - N/A   Clear
6:55 PM 82.4 °F 41.0 °F 23% 30.04 in 10.0 mi SW 3.5 mph - N/A   Clear
7:15 PM 80.6 °F 42.8 °F 26% 30.04 in 10.0 mi SW 3.5 mph - N/A   Clear
7:35 PM 78.8 °F 44.6 °F 30% 30.04 in 10.0 mi Calm Calm - N/A   Clear
7:55 PM 78.8 °F 46.4 °F 32% 30.05 in 10.0 mi Variable 4.6 mph - N/A   Clear
8:15 PM 75.2 °F 48.2 °F 38% 30.05 in 10.0 mi Variable 4.6 mph - N/A   Clear
8:35 PM 73.4 °F 48.2 °F 41% 30.06 in 10.0 mi West 5.8 mph - N/A   Clear
8:55 PM 73.4 °F 48.2 °F 41% 30.07 in 10.0 mi Variable 3.5 mph - N/A   Clear
9:15 PM 71.6 °F 48.2 °F 43% 30.07 in 10.0 mi Calm Calm - N/A   Clear
9:35 PM 69.8 °F 48.2 °F 46% 30.07 in 10.0 mi Calm Calm - N/A   Mostly Cloudy
9:55 PM 68.0 °F 50.0 °F 52% 30.08 in 10.0 mi Calm Calm - N/A   Scattered Clouds
10:15 PM 66.2 °F 50.0 °F 56% 30.08 in 10.0 mi Calm Calm - N/A   Clear
10:35 PM 66.2 °F 50.0 °F 56% 30.08 in 10.0 mi Calm Calm - N/A   Clear
10:55 PM 64.4 °F 50.0 °F 59% 30.08 in 10.0 mi Calm Calm - N/A   Clear
11:15 PM 64.4 °F 50.0 °F 59% 30.08 in 10.0 mi Calm Calm - N/A   Clear
11:35 PM 62.6 °F 50.0 °F 63% 30.08 in 10.0 mi Calm Calm - N/A   Clear
11:55 PM 62.6 °F 50.0 °F 63% 30.08 in 10.0 mi Calm Calm - N/A   Clear